Flag for Finland Weather past 2 weeks in Helsinki, Finland

Now
66 °F

Passing clouds.


Feels Like: 66 °F
Forecast: 56 / 65 °F
Wind: 12 mph from West

Location: Helsinki Malmi Airport

Current Time: Aug 1, 2015 at 5:43:25 PM

Latest Report: Aug 1, 2015 at 5:20 PM


Visibility: N/A

Pressure: 29.83 "Hg

Humidity: 56%

Dew point: 50 °F

Location of HelsinkiLocation

Historic Weather in Helsinki — Graph

°F

Helsinki temperature yesterday

Maximum temperature yesterday: 64 °F (at 12:20 PM)
Minimum temperature yesterday: 52 °F (at 4:50 AM)
Average temperature yesterday: 58 °F

Past Weeks' High & Low Weather Summary

 TemperatureHumidityPressure
High70 °F (Jul 21, 1:20 PM)100% (Jul 17, 11:20 PM)29.92 "Hg (Jul 17, 11:20 PM)
Low45 °F (Jul 28, 5:20 AM)43% (Aug 1, 1:50 PM)29.47 "Hg (Jul 22, 9:50 AM)
Average60 °F79%29.67 "Hg
* Reported Jul 17 4:20 PM — Aug 1 4:20 PM, Helsinki, Weather by CustomWeather, © 2015

Note: Actual official high and low records may vary slightly from our data, if they occured in-between our weather recording intervals... More about our weather records

Advertising

Helsinki weather history for previous 24 hours

 ConditionsComfort  
Time TempWeatherWind HumidityBarometerVisibility
4:20 PM
Sat, Aug 1
66 °FPassing clouds.12 mph49%29.83 "HgN/A
3:50 PM66 °FPassing clouds.14 mph46%29.83 "HgN/A
3:20 PM68 °FPassing clouds.9 mph46%29.83 "HgN/A
2:50 PM68 °FPassing clouds.13 mph43%29.83 "HgN/A
2:20 PM66 °FScattered clouds.10 mph49%29.83 "HgN/A
1:50 PM68 °FScattered clouds.13 mph43%29.80 "HgN/A
1:20 PM68 °FScattered clouds.13 mph46%29.80 "HgN/A
12:50 PM66 °FScattered clouds.10 mph49%29.80 "HgN/A
12:20 PM64 °FScattered clouds.14 mph52%29.80 "HgN/A
11:50 AM64 °FScattered clouds.13 mph52%29.80 "HgN/A
11:20 AM64 °FScattered clouds.12 mph52%29.80 "HgN/A
10:50 AM64 °FPassing clouds.10 mph52%29.80 "HgN/A
10:20 AM63 °FPassing clouds.12 mph56%29.80 "HgN/A
9:50 AM61 °FPassing clouds.10 mph59%29.80 "HgN/A
9:20 AM61 °FPassing clouds.10 mph68%29.80 "HgN/A
8:50 AM59 °FSunny.9 mph72%29.80 "Hg10 mi
8:20 AM59 °FPassing clouds.8 mph72%29.80 "HgN/A
7:50 AM57 °FPassing clouds.7 mph82%29.80 "HgN/A
7:20 AM55 °FPassing clouds.7 mph88%29.80 "HgN/A
6:50 AM54 °FSunny.3 mph88%29.80 "Hg10 mi
6:20 AM54 °FSunny.3 mph88%29.80 "Hg10 mi
5:50 AM52 °FClear.3 mph88%29.80 "Hg10 mi
5:20 AM52 °FClear.3 mph88%29.80 "Hg10 mi
4:50 AM52 °FPassing clouds.5 mph88%29.77 "HgN/A
4:20 AM52 °FPassing clouds.6 mph88%29.80 "HgN/A
3:50 AM52 °FPassing clouds.6 mph88%29.77 "HgN/A
3:20 AM52 °FPassing clouds.5 mph88%29.77 "HgN/A
2:50 AM52 °FPassing clouds.5 mph88%29.77 "HgN/A
2:20 AM52 °FClear.3 mph88%29.77 "Hg10 mi
1:50 AM52 °FClear.3 mph88%29.77 "Hg10 mi
1:20 AM52 °FPassing clouds.5 mph82%29.77 "HgN/A
12:50 AM52 °FClear.3 mph82%29.77 "Hg10 mi
12:20 AM54 °FPassing clouds.5 mph77%29.74 "HgN/A
11:50 PM
Fri, Jul 31
54 °FPassing clouds.5 mph77%29.74 "HgN/A
11:20 PM55 °FPassing clouds.6 mph72%29.74 "HgN/A
10:50 PM57 °FPartly sunny.10 mph67%29.74 "HgN/A
10:20 PM57 °FOvercast.8 mph72%29.71 "HgN/A
9:50 PM59 °FOvercast.9 mph68%29.71 "HgN/A
9:20 PM59 °FPartly sunny.8 mph68%29.71 "HgN/A
8:50 PM59 °FPartly sunny.9 mph68%29.71 "HgN/A
8:20 PM59 °FPartly sunny.14 mph68%29.68 "HgN/A
7:50 PM59 °FPartly sunny.12 mph72%29.68 "HgN/A
7:20 PM61 °FPartly sunny.12 mph72%29.65 "HgN/A
6:50 PM63 °FPartly sunny.13 mph68%29.65 "HgN/A
6:20 PM63 °FPartly sunny.10 mph73%29.65 "HgN/A
5:50 PM64 °FPartly sunny.12 mph73%29.62 "HgN/A
5:20 PM64 °FPartly sunny.14 mph73%29.62 "HgN/A
Weather by CustomWeather, © 2015

See weather overviewHow to use our weather pages